Temp
11 11 12 12 12 12 13 13 13 13 13 13 13 13 13 12 13 12 12 12 12 12 11 12 12 12 14 13 15 17 17 17 18 17 17 18 18 17 16 16 17 16 16 18 19 19 19
10 11 11 11 11 12 12 13 12 12 13 13 13 13 13 12 12 12 12 11 11 11 11 11 11 12 12 10 17 17 16 17 17 17 17 17 17 17 17 16 16 17 17 16 18 18 18
9 10 10 11 11 11 12 12 12 12 12 12 12 12 12 12 12 12 11 11 11 10 10 10 10 11 11 12 16 16 17 17 17 17 17 17 17 17 17 15 17 17 15 14 16 18 18
8 9 9 10 10 11 11 11 11 12 12 12 12 12 12 12 12 12 11 11 10 10 10 10 10 10 10 15 16 17 17 17 16 16 17 17 17 17 16 17 16 15 15 14 17 18 19
5 6 8 9 9 10 11 11 11 11 12 12 12 12 11 11 11 11 11 10 10 9 9 9 9 9 10 14 16 17 17 17 17 17 17 18 17 17 16 13 12 12 13 13 15 17 18
5 5 6 7 9 9 10 10 10 11 11 11 11 11 11 11 10 10 10 9 9 9 9 9 8 8 13 15 15 16 17 17 17 17 17 17 17 13 10 11 12 12 12 13 14 16 16
3 4 4 6 8 9 9 9 10 10 10 11 11 11 11 11 10 9 8 8 8 9 8 10 11 12 15 15 15 16 16 16 16 16 13 15 12 12 12 12 14 14 13 13 14 15 15
3 3 4 4 6 7 9 9 9 10 10 10 10 10 11 10 10 9 8 8 9 9 8 10 10 10 13 14 11 14 16 15 15 13 13 13 12 14 13 13 13 13 13 13 14 15 15
2 2 3 4 5 5 7 8 8 9 10 10 10 10 10 10 9 8 8 9 8 8 8 10 10 10 11 12 12 12 14 15 13 12 12 12 13 14 14 13 13 13 13 13 13 14 14
2 2 2 4 4 5 6 7 8 9 9 10 10 9 9 9 8 7 7 8 8 8 8 11 10 11 10 11 12 13 13 14 13 13 12 11 14 14 13 13 13 12 13 14 14 13 12
1 1 2 3 4 4 5 6 8 8 9 9 10 9 9 9 7 7 7 8 8 8 9 12 12 13 12 11 13 13 13 13 13 13 13 13 13 12 13 13 14 13 14 13 13 12 12
1 1 2 2 3 3 4 5 6 8 8 9 9 10 9 8 8 7 7 7 7 7 7 10 12 11 11 12 13 14 13 14 14 13 13 12 15 14 13 14 13 14 14 11 10 10 10
1 1 1 2 3 3 3 4 6 7 8 9 9 10 9 9 7 7 7 7 6 7 9 10 11 13 12 11 12 14 12 12 12 11 11 12 12 13 14 13 13 13 11 10 10 9 11
0 1 1 1 2 3 3 4 5 6 7 9 9 9 9 9 7 7 7 7 7 9 9 11 12 12 12 13 12 13 12 11 11 12 9 10 10 11 13 13 13 11 12 9 11 10 10
0 1 1 1 2 2 3 3 4 6 7 7 8 8 7 6 7 7 7 7 8 10 10 11 12 10 11 13 13 13 11 11 12 11 10 9 10 11 11 11 12 11 10 11 8 8 8
0 1 1 1 1 2 2 3 4 5 6 7 8 6 6 6 6 6 7 7 7 9 9 10 10 9 9 11 12 12 12 11 10 10 9 9 9 10 10 11 11 11 11 10 8 9 9
0 1 1 1 1 2 2 3 4 5 5 7 7 5 5 6 5 6 5 5 5 5 8 9 10 9 9 10 10 11 11 9 9 8 8 8 8 8 10 10 9 9 8 7 7 6 6
-0 1 1 1 1 1 2 3 4 5 4 7 5 4 4 5 5 5 3 4 5 5 5 6 6 8 7 9 8 9 8 9 9 8 8 7 6 7 8 9 9 8 8 6 4 4 2
0 0 1 1 1 2 2 2 3 4 3 5 4 1 4 4 4 3 4 4 4 4 4 4 5 7 8 8 6 9 8 7 8 7 6 6 4 5 6 7 7 7 7 6 5 3 3
-0 0 0 0 1 1 2 2 3 3 3 5 2 1 -0 2 1 4 3 4 4 4 4 4 4 6 7 6 6 6 7 6 7 7 7 7 5 7 8 7 6 5 6 5 4 0 4
1 1 0 1 0 1 2 2 3 2 4 5 1 0 1 2 1 3 4 4 4 4 3 3 3 5 4 4 4 5 5 6 6 6 5 5 5 5 5 5 5 4 4 4 4 4 3
2 1 1 0 1 2 2 2 3 3 4 4 -1 0 1 4 2 3 3 3 4 3 3 3 4 4 4 3 4 3 4 5 5 5 4 4 3 4 4 4 4 3 4 4 4 4 4
4 1 0 1 2 2 2 3 3 4 3 1 1 3 4 2 2 3 2 3 3 4 4 4 5 4 4 4 4 4 4 4 4 4 3 3 2 3 2 3 2 0 3 3 3 4 4
0 1 1 1 1 2 2 2 2 3 3 4 2 4 2 2 2 2 3 3 3 4 3 5 5 3 3 4 4 4 4 4 4 3 3 2 2 0 -1 1 -4 2 4 4 3 4 3
-0 -0 0 0 0 1 1 2 2 2 3 4 3 3 1 2 2 2 2 2 3 4 4 4 4 4 4 4 1 1 1 2 3 3 2 2 1 -1 -4 -1 1 3 3 3 2 2 3
-0 -0 -0 -0 -0 -0 0 1 2 2 2 2 0 2 3 2 1 1 1 2 1 1 0 1 3 4 4 -0 -0 1 1 3 3 3 3 2 1 -0 -3 -4 -3 2 3 4 2 1 2
-1 -0 -1 -0 -0 -0 0 1 1 1 1 2 3 4 4 1 0 1 -0 0 2 1 1 1 2 2 3 -2 -0 0 1 2 2 2 1 0 -2 -1 -1 -2 0 2 2 4 1 1 4
0 1 1 1 1 2 2 2 3 3 3 4 3 5 5 1 1 3 3 2 2 2 0 1 1 -0 -3 -4 -2 -2 0 1 1 2 2 1 -3 -4 -4 -4 -1 1 2 2 2 2 3
-0 0 1 1 2 3 3 3 4 4 4 5 3 3 3 2 0 3 3 4 4 4 2 0 0 -2 -2 -4 -4 -4 -2 -4 -0 -0 1 -1 -0 -1 -2 -3 0 1 3 3 4 2 3
Height
1454 1457 1460 1463 1465 1468 1471 1474 1477 1480 1483 1486 1488 1491 1494 1496 1499 1501 1503 1503 1503 1503 1503 1501 1500 1499 1498 1496 1489 1490 1488 1487 1486 1486 1487 1486 1488 1489 1490 1489 1487 1486 1480 1478 1477 1477 1474
1443 1446 1449 1452 1456 1458 1462 1465 1468 1472 1475 1478 1481 1484 1488 1490 1494 1497 1499 1500 1500 1499 1499 1498 1497 1496 1496 1493 1484 1485 1485 1484 1485 1484 1485 1485 1486 1488 1488 1485 1486 1480 1477 1474 1473 1471 1471
1432 1433 1438 1441 1445 1449 1452 1456 1459 1463 1467 1470 1474 1477 1480 1485 1488 1491 1495 1496 1497 1496 1495 1496 1495 1493 1489 1481 1482 1480 1479 1478 1480 1481 1481 1483 1484 1485 1486 1485 1481 1479 1478 1471 1467 1463 1465
1421 1424 1425 1429 1432 1437 1442 1445 1450 1454 1458 1463 1466 1470 1474 1478 1482 1486 1489 1492 1493 1493 1492 1493 1492 1490 1480 1476 1475 1473 1474 1471 1472 1476 1478 1481 1482 1482 1482 1483 1481 1482 1480 1484 1462 1461 1462
1410 1412 1414 1418 1421 1424 1429 1434 1439 1444 1449 1454 1458 1463 1467 1471 1476 1481 1485 1487 1488 1489 1489 1489 1489 1489 1473 1471 1468 1470 1470 1470 1471 1473 1474 1478 1480 1480 1480 1485 1492 1488 1491 1482 1471 1458 1461
1397 1402 1405 1407 1410 1413 1417 1422 1427 1434 1440 1444 1449 1455 1461 1465 1470 1476 1480 1483 1484 1485 1485 1485 1485 1491 1472 1467 1467 1466 1467 1470 1470 1470 1473 1475 1476 1479 1482 1486 1497 1491 1490 1480 1473 1463 1464
1389 1389 1393 1396 1398 1403 1407 1411 1415 1422 1428 1434 1440 1446 1452 1458 1464 1470 1476 1481 1483 1481 1475 1471 1468 1468 1466 1465 1464 1466 1467 1468 1469 1470 1471 1470 1479 1476 1477 1476 1473 1476 1481 1481 1469 1461 1468
1379 1379 1381 1385 1388 1390 1395 1401 1405 1409 1415 1422 1430 1438 1444 1452 1458 1463 1470 1471 1473 1471 1469 1465 1464 1464 1462 1464 1462 1463 1466 1468 1467 1469 1468 1473 1473 1463 1469 1472 1474 1476 1477 1474 1465 1461 1462
1366 1368 1368 1372 1376 1379 1382 1390 1394 1397 1404 1410 1418 1428 1437 1446 1452 1456 1461 1467 1469 1472 1470 1456 1454 1451 1452 1456 1450 1447 1460 1459 1462 1466 1468 1467 1462 1458 1464 1468 1473 1472 1474 1471 1472 1463 1460
1353 1355 1356 1358 1362 1368 1372 1377 1382 1385 1392 1399 1405 1416 1428 1435 1446 1447 1454 1461 1466 1475 1470 1446 1444 1433 1438 1444 1440 1436 1441 1453 1454 1456 1463 1461 1456 1457 1460 1461 1465 1468 1461 1463 1465 1468 1477
1340 1341 1343 1344 1350 1355 1361 1365 1371 1378 1382 1389 1394 1404 1413 1423 1430 1436 1447 1457 1465 1476 1472 1436 1432 1430 1430 1435 1430 1423 1430 1442 1441 1448 1454 1450 1452 1455 1455 1450 1455 1455 1453 1458 1461 1466 1470
1323 1326 1329 1331 1337 1341 1347 1353 1359 1366 1373 1379 1385 1391 1401 1413 1420 1429 1442 1456 1467 1478 1459 1430 1424 1425 1430 1430 1426 1423 1426 1435 1439 1447 1445 1444 1446 1447 1446 1445 1448 1449 1452 1461 1467 1472 1475
1306 1310 1314 1318 1322 1327 1334 1341 1348 1354 1363 1370 1374 1380 1385 1397 1403 1419 1434 1450 1464 1451 1430 1421 1419 1418 1421 1424 1425 1422 1427 1430 1436 1450 1447 1443 1441 1442 1442 1447 1446 1448 1459 1475 1476 1481 1464
1289 1293 1296 1303 1307 1313 1320 1328 1334 1342 1352 1357 1363 1370 1374 1377 1390 1406 1423 1438 1433 1405 1413 1412 1413 1416 1419 1417 1421 1422 1426 1429 1428 1431 1442 1445 1447 1438 1433 1434 1441 1448 1450 1468 1464 1469 1464
1270 1274 1279 1285 1292 1299 1306 1314 1323 1331 1340 1349 1357 1361 1364 1364 1376 1389 1407 1412 1394 1400 1404 1410 1413 1422 1419 1414 1417 1419 1424 1425 1421 1423 1437 1442 1442 1435 1432 1432 1435 1445 1451 1447 1462 1468 1472
1249 1255 1262 1268 1275 1283 1291 1301 1312 1320 1329 1338 1345 1354 1354 1361 1364 1376 1389 1390 1394 1397 1402 1405 1411 1417 1419 1412 1418 1416 1419 1417 1421 1420 1421 1432 1446 1442 1437 1434 1435 1436 1442 1453 1460 1460 1464
1225 1233 1241 1251 1259 1268 1277 1289 1300 1308 1318 1328 1335 1340 1346 1356 1363 1360 1370 1386 1391 1396 1400 1403 1403 1409 1409 1411 1415 1414 1415 1420 1416 1421 1421 1428 1436 1447 1442 1440 1442 1445 1450 1455 1457 1469 1474
1198 1209 1220 1231 1243 1253 1264 1276 1288 1298 1307 1315 1315 1329 1338 1346 1355 1352 1360 1378 1384 1386 1398 1399 1403 1403 1406 1407 1416 1418 1416 1416 1415 1416 1422 1427 1436 1447 1445 1442 1442 1444 1448 1455 1473 1479 1483
1168 1184 1199 1213 1226 1238 1253 1265 1277 1288 1295 1300 1305 1325 1330 1339 1338 1351 1353 1369 1371 1379 1391 1396 1401 1403 1400 1401 1414 1408 1415 1415 1416 1420 1422 1424 1442 1452 1453 1449 1445 1448 1450 1453 1460 1469 1477
1133 1156 1179 1198 1214 1228 1242 1254 1267 1276 1287 1291 1298 1317 1327 1334 1331 1342 1351 1362 1365 1371 1383 1392 1396 1399 1401 1405 1410 1413 1417 1421 1419 1420 1420 1423 1434 1434 1433 1437 1444 1450 1450 1452 1458 1481 1467
1099 1131 1159 1183 1203 1220 1233 1245 1257 1266 1275 1277 1286 1298 1300 1322 1331 1333 1343 1354 1360 1361 1376 1384 1392 1391 1397 1406 1412 1415 1418 1423 1424 1424 1425 1426 1433 1439 1442 1446 1447 1449 1449 1450 1453 1456 1461
1069 1111 1145 1176 1195 1211 1224 1236 1245 1255 1263 1265 1272 1283 1302 1308 1318 1331 1344 1349 1349 1361 1360 1373 1379 1389 1394 1398 1401 1413 1416 1418 1421 1426 1429 1431 1440 1442 1447 1446 1448 1450 1448 1448 1449 1447 1448
1071 1115 1153 1179 1196 1208 1219 1228 1240 1244 1251 1246 1260 1274 1281 1304 1315 1328 1339 1342 1349 1349 1365 1368 1373 1383 1394 1398 1403 1409 1413 1420 1422 1425 1431 1435 1439 1444 1450 1450 1453 1457 1437 1439 1442 1440 1441
1134 1157 1174 1188 1198 1209 1217 1223 1225 1232 1244 1248 1259 1265 1279 1304 1320 1326 1334 1336 1348 1350 1359 1370 1375 1385 1392 1397 1405 1411 1419 1423 1425 1424 1429 1435 1437 1449 1462 1459 1487 1439 1434 1434 1437 1434 1435
1179 1187 1193 1200 1205 1209 1215 1224 1229 1238 1246 1253 1262 1263 1285 1305 1317 1326 1333 1341 1352 1355 1364 1369 1376 1385 1390 1396 1413 1421 1431 1429 1426 1423 1429 1433 1439 1454 1476 1462 1443 1429 1430 1432 1433 1434 1427
1208 1210 1214 1215 1217 1221 1224 1232 1242 1247 1254 1257 1266 1272 1276 1293 1320 1320 1330 1347 1352 1359 1371 1378 1382 1387 1392 1402 1412 1421 1420 1425 1425 1424 1423 1430 1435 1446 1461 1476 1468 1431 1422 1423 1430 1433 1423
1234 1232 1233 1235 1237 1238 1241 1247 1251 1256 1263 1268 1279 1279 1280 1300 1320 1318 1337 1347 1355 1359 1368 1376 1384 1390 1392 1406 1412 1418 1422 1424 1427 1421 1429 1435 1443 1445 1447 1454 1435 1423 1423 1423 1433 1433 1417
1252 1252 1253 1254 1254 1258 1260 1263 1267 1270 1277 1277 1283 1286 1281 1288 1321 1334 1341 1350 1355 1350 1364 1380 1388 1391 1399 1412 1415 1421 1419 1420 1423 1420 1423 1427 1446 1452 1453 1459 1442 1422 1421 1424 1421 1416 1417
1269 1268 1268 1268 1268 1267 1271 1274 1275 1278 1279 1277 1281 1293 1295 1307 1334 1341 1349 1352 1349 1353 1362 1376 1380 1386 1392 1406 1413 1416 1419 1427 1422 1426 1422 1432 1425 1429 1434 1432 1416 1415 1414 1415 1415 1413 1411
Wind_Speed
45 42 45 44 42 40 40 40 40 39 37 35 34 32 30 28 26 22 21 20 19 18 19 18 19 21 22 14 25 20 8 9 7 5 6 4 5 1 1 4 9 5 6 11 12 23 21
44 48 44 46 45 43 42 41 41 42 40 38 37 35 32 30 28 24 23 21 19 18 19 18 18 20 22 10 18 7 19 17 10 9 7 5 3 9 10 6 3 4 11 15 16 23 18
39 39 47 46 47 46 44 43 42 42 42 41 39 37 34 32 30 27 24 22 20 19 18 18 17 19 27 35 27 25 21 23 20 17 14 11 12 10 2 5 5 6 8 10 6 10 7
46 49 35 44 52 47 47 46 44 42 43 43 41 39 36 34 31 28 25 23 22 19 18 17 18 20 20 24 26 25 18 19 18 19 17 12 13 9 7 6 7 5 3 5 3 4 5
40 42 50 44 41 51 49 49 47 44 44 43 43 41 38 35 32 29 26 23 23 20 18 18 18 11 19 14 10 12 10 12 10 8 9 11 10 7 4 4 4 3 5 6 6 5 2
42 41 38 49 47 40 51 50 50 47 46 45 42 42 39 36 32 28 25 24 20 21 21 20 16 7 22 21 11 7 6 6 6 8 7 10 8 3 2 4 5 5 5 5 8 1 4
41 38 43 38 52 50 39 48 47 51 49 46 44 41 40 37 33 29 26 20 15 12 20 17 10 9 9 6 4 3 4 8 9 5 6 5 4 11 12 8 6 3 5 9 13 11 3
44 43 42 42 40 44 52 38 47 49 53 49 45 41 38 37 33 30 25 25 17 5 10 19 28 28 33 32 13 24 12 6 8 8 4 1 11 13 9 7 8 8 12 15 12 11 3
46 45 45 46 45 38 48 50 42 45 50 51 46 42 38 36 34 33 31 30 21 19 7 16 27 30 39 31 32 32 28 17 6 6 8 11 7 11 11 7 8 12 14 13 9 6 5
46 46 46 46 50 46 38 47 39 46 47 51 49 44 40 40 37 37 35 30 23 8 5 5 8 12 24 19 12 34 41 27 8 16 5 9 12 12 8 9 8 14 8 12 8 3 5
51 49 46 46 48 51 50 43 44 39 52 52 49 45 46 47 38 40 31 31 15 4 6 2 6 5 8 18 3 7 33 31 24 10 8 8 5 9 15 18 10 10 11 10 6 4 3
52 50 50 48 48 48 46 51 49 44 44 51 46 49 50 45 45 37 35 24 19 5 12 4 5 7 7 17 4 2 7 17 14 10 11 10 5 5 8 7 8 3 4 5 4 3 6
54 54 53 49 49 49 49 48 51 50 49 54 52 55 55 54 49 35 35 30 4 10 3 6 6 8 9 7 5 4 6 13 9 6 14 9 15 5 6 5 1 4 6 1 2 2 7
56 56 55 52 51 50 50 48 49 46 48 48 61 55 58 60 48 44 46 10 13 17 17 1 3 4 10 6 5 6 6 8 7 3 3 9 4 4 5 15 9 7 9 6 7 5 3
58 57 57 56 52 50 51 51 47 47 45 48 46 52 59 51 55 57 37 17 20 18 12 11 7 2 4 7 6 12 8 6 9 7 7 5 3 3 6 3 4 5 4 2 6 2 1
64 61 59 58 55 51 51 51 49 50 49 42 48 49 40 54 62 62 18 18 9 6 7 8 14 11 11 11 9 11 9 1 7 5 5 7 3 2 3 2 7 3 5 4 2 4 6
68 66 64 59 57 53 52 51 49 53 50 49 45 23 37 53 64 44 13 10 8 7 11 11 15 14 12 10 8 6 5 1 3 3 5 5 4 3 2 1 6 2 2 6 4 3 4
72 68 65 63 58 56 53 51 49 49 41 58 35 7 40 62 12 6 10 9 7 12 6 2 2 11 13 16 14 17 10 2 2 6 7 2 4 4 1 3 4 1 3 4 5 5 2
73 70 66 62 57 54 53 51 50 49 42 45 29 7 45 46 10 9 9 9 7 11 9 9 11 11 6 13 7 12 2 5 3 3 7 6 1 4 2 3 2 3 3 4 5 3 5
75 74 69 61 58 55 52 50 51 51 51 46 17 4 4 14 7 12 9 7 9 13 10 7 6 7 7 8 1 10 10 4 2 3 8 6 3 3 6 3 4 4 5 5 4 3 3
72 69 66 62 57 53 49 49 52 47 66 46 10 5 11 10 7 15 12 8 15 9 7 14 3 8 11 6 5 5 6 5 4 4 4 3 4 3 4 4 2 3 4 6 7 7 7
67 68 65 56 54 48 48 48 50 42 69 28 12 8 10 14 21 14 7 12 21 7 9 11 10 14 7 5 4 7 8 2 3 3 3 3 2 3 3 3 5 9 7 10 11 12 12
29 56 49 48 47 44 44 45 44 58 64 12 17 24 19 12 14 14 6 8 16 12 5 13 17 17 10 6 11 12 11 8 6 5 3 4 5 3 2 4 5 9 10 14 6 8 8
62 48 39 35 35 40 39 41 48 56 34 34 37 33 8 9 12 8 17 22 18 6 13 20 20 9 14 27 22 16 12 7 5 3 4 4 5 3 3 4 3 3 1 6 10 9 9
71 64 58 51 48 48 46 44 38 31 24 39 31 26 9 9 11 17 23 19 17 20 13 13 9 23 30 20 4 5 2 2 4 6 7 4 4 3 4 4 8 7 7 5 6 8 7
65 63 58 56 55 52 48 38 34 34 36 35 25 22 33 13 2 28 17 14 12 10 7 8 28 30 21 3 3 2 4 3 3 3 2 5 4 4 3 5 6 4 3 4 4 5 6
56 52 51 50 46 42 41 38 37 36 32 36 33 28 36 18 21 25 5 8 12 9 8 8 9 6 7 2 3 2 3 2 4 5 5 4 2 8 5 4 6 3 5 4 4 5 7
43 44 44 41 38 37 39 35 34 37 35 39 31 32 30 29 20 19 24 20 13 13 9 11 7 2 3 4 3 3 3 3 2 1 3 5 5 3 2 2 8 3 4 2 5 18 18
39 37 35 36 35 35 32 31 31 31 32 31 46 39 41 31 28 27 19 24 15 27 31 6 6 4 6 4 1 3 2 2 4 3 2 2 5 4 7 6 7 7 8 21 22 24 27
Wind_Direction
257 259 256 254 253 251 251 248 244 243 242 243 244 245 247 251 254 254 259 263 271 283 294 301 308 314 315 303 275 298 295 303 275 277 282 281 314 256 240 293 313 225 261 281 286 298 300
245 256 257 253 253 252 250 249 246 243 241 242 243 244 246 248 252 252 255 260 267 275 288 298 306 310 311 282 296 266 293 282 271 247 257 282 265 298 289 233 202 280 295 295 301 288 284
252 243 250 253 251 251 250 249 247 245 243 240 240 242 244 246 249 251 253 257 263 272 283 296 304 307 296 271 288 285 277 274 264 240 255 270 280 267 284 310 275 286 308 312 262 257 242
257 253 247 249 254 251 250 249 248 246 244 242 241 240 241 243 246 249 251 255 260 267 278 291 299 303 279 291 285 284 289 275 245 228 245 267 275 268 228 261 317 332 319 328 284 333 258
259 255 256 249 248 253 252 247 248 246 244 242 240 240 239 240 243 246 251 255 258 266 274 282 295 295 275 281 271 295 278 275 211 216 218 225 248 239 168 107 353 333 251 253 301 247 216
260 253 256 253 247 247 253 251 244 245 245 242 240 238 239 239 240 242 246 254 265 269 272 273 265 282 260 264 275 312 250 221 181 175 177 192 201 189 63 118 227 207 253 265 264 282 21
260 259 253 255 252 244 249 254 251 243 242 243 240 236 235 236 235 236 236 247 258 262 233 217 216 209 254 239 272 214 179 206 206 196 171 181 166 216 197 199 212 191 222 264 276 282 333
263 256 253 253 250 248 243 249 254 252 240 237 238 237 233 233 232 231 229 226 225 211 293 252 242 248 252 263 277 247 243 242 194 211 151 105 224 232 184 206 225 254 264 263 286 271 259
262 262 253 247 246 249 243 241 249 252 251 237 232 234 231 229 227 224 223 228 232 243 270 266 250 244 246 252 244 247 237 229 194 212 201 203 216 216 216 210 211 231 241 260 253 297 275
262 260 258 251 248 247 248 236 239 250 247 250 231 228 227 223 220 216 217 216 224 259 278 240 230 251 224 232 261 247 232 219 199 219 204 238 227 227 222 234 199 246 213 235 231 169 258
259 259 259 253 249 248 245 238 232 239 249 248 241 223 225 221 210 209 207 211 206 147 273 184 195 211 194 172 263 241 225 205 221 192 162 217 197 204 226 238 221 258 186 185 190 200 136
256 257 256 256 249 246 246 243 239 231 240 246 246 222 221 216 218 213 199 187 176 136 234 263 204 165 145 208 253 81 147 196 221 231 242 247 229 186 197 210 184 126 84 62 57 111 252
255 254 254 252 249 245 244 242 240 237 232 241 245 234 215 216 199 187 181 159 173 211 128 204 200 182 189 177 223 184 169 175 176 164 226 229 236 216 192 227 191 133 109 280 278 201 243
255 252 251 250 247 243 241 240 236 237 231 233 237 231 227 211 194 179 168 165 211 217 210 136 105 177 196 159 221 199 153 193 223 156 129 194 253 160 175 211 193 190 173 177 211 200 252
254 252 248 246 246 243 238 238 235 231 226 229 227 224 205 190 187 176 163 195 219 204 182 212 252 323 220 202 186 198 200 199 204 168 181 173 203 299 35 103 128 170 176 138 105 35 78
254 252 246 245 241 239 236 234 231 230 223 226 216 196 196 187 180 170 182 206 220 202 141 179 203 183 210 208 200 192 186 187 169 175 127 197 124 302 278 355 31 134 147 114 24 202 244
248 246 246 241 239 238 233 230 227 231 227 225 193 177 190 182 171 174 187 205 201 215 169 182 205 201 210 198 217 215 219 352 144 91 111 132 119 236 3 236 175 66 86 51 84 145 192
243 241 238 237 237 234 228 226 222 227 226 203 170 176 180 172 177 186 161 173 167 167 189 164 225 197 195 194 187 206 203 135 140 149 139 134 114 141 130 10 36 101 138 134 142 227 243
236 235 233 233 232 226 227 223 218 219 213 184 156 123 163 177 174 189 132 146 147 145 168 171 189 185 208 186 177 215 188 14 142 106 155 167 143 113 34 341 44 122 105 108 99 94 197
230 225 226 226 227 223 222 220 218 215 206 187 143 135 116 195 141 171 148 165 140 151 148 162 152 165 147 155 143 174 168 8 62 106 103 110 147 168 204 128 127 160 173 131 136 123 193
227 222 215 215 216 220 218 214 215 214 196 178 141 166 153 177 175 165 165 155 151 141 153 157 145 184 163 137 158 159 121 133 45 58 38 83 150 113 97 113 159 180 196 180 184 189 216
218 207 200 198 204 210 209 209 210 204 190 185 138 143 164 151 135 140 165 164 162 131 141 166 156 163 138 124 157 149 145 131 158 55 75 26 126 110 167 196 240 254 218 216 219 241 250
156 161 172 189 199 203 208 207 206 198 185 148 128 137 128 141 149 155 179 149 155 123 124 152 142 138 141 124 109 100 97 111 141 129 122 136 136 115 193 72 350 298 221 216 197 237 221
103 127 144 166 186 194 196 188 168 172 173 170 146 136 98 135 162 157 145 133 141 114 135 138 133 113 124 119 97 78 69 77 132 148 128 139 118 102 152 71 294 241 64 155 205 234 240
85 93 103 113 115 121 134 145 147 153 158 154 140 129 117 125 132 131 136 131 107 104 114 111 106 135 136 110 81 103 12 4 244 220 188 157 122 124 143 195 294 282 213 173 180 260 239
82 83 84 88 90 95 100 113 125 129 136 134 136 141 125 119 116 126 110 130 123 114 98 109 120 133 131 83 106 139 149 178 205 163 271 143 136 136 130 167 236 214 203 149 107 273 177
80 82 85 91 90 89 97 103 110 128 127 120 127 137 122 107 122 121 113 133 141 113 110 109 128 106 137 105 103 123 170 175 205 176 156 135 96 201 199 215 275 292 319 134 180 246 212
73 79 84 87 89 96 100 107 117 120 130 134 115 127 128 94 107 140 135 135 143 115 130 158 102 11 58 78 119 171 151 184 162 191 176 163 158 186 107 163 254 54 17 217 285 311 298
70 74 78 79 82 82 90 95 102 115 116 111 99 108 118 103 106 122 131 149 143 150 130 124 143 125 150 98 122 112 129 119 160 197 170 234 190 191 172 212 217 205 231 272 286 276 287